Location: Rowland
(34.5359°N, 79.2929°W)
Time: 19:12:13
(UTC+00:00)

S-56A Canister/Altair - Pass Details

Date: 07 October 2022
Orbit: 638 x 2494 km, 38.9° (Epoch: 02 December)

Event Time Altitude Azimuth Distance (km) Brightness Sun altitude
Rises 00:49:14 0° 177° (S) 6,061 12.0 -24.4°
Reaches altitude 10° 00:56:41 10° 154° (SSE) 5,147 11.4 -25.9°
Enters shadow 00:57:24 11° 151° (SSE) 5,087 11.3 -26.1°
